2016-01-07 00:01:55 r, 19.21m,0000000002Hz,0000265954c,0000000.577s, 002.9C,00002191
2016-01-07 00:11:55 r, 19.35m,0000000001Hz,0000302557c,0000000.657s, 002.9C,00002191
2016-01-07 00:21:55 r, 19.46m,0000000002Hz,0000330541c,0000000.717s, 002.5C,00002191
2016-01-07 00:31:55 r, 19.49m,0000000001Hz,0000341852c,0000000.742s, 002.5C,00002191
2016-01-07 00:41:55 r, 19.42m,0000000002Hz,0000319576c,0000000.694s, 002.2C,00002191
2016-01-07 00:51:56 r, 19.42m,0000000001Hz,0000317664c,0000000.689s, 002.2C,00002191
2016-01-07 01:01:55 r, 19.59m,0000000001Hz,0000372545c,0000000.808s, 002.2C,00002191
2016-01-07 01:11:55 r, 19.74m,0000000001Hz,0000429991c,0000000.933s, 001.9C,00002191
2016-01-07 01:21:55 r, 19.77m,0000000001Hz,0000441559c,0000000.958s, 001.9C,00002191
2016-01-07 01:31:55 r, 19.70m,0000000001Hz,0000415696c,0000000.902s, 001.9C,00002191
2016-01-07 01:41:55 r, 19.63m,0000000002Hz,0000387950c,0000000.842s, 001.6C,00002191
2016-01-07 01:51:55 r, 19.63m,0000000002Hz,0000385995c,0000000.838s, 001.6C,00002191
2016-01-07 02:01:55 r, 19.75m,0000000001Hz,0000432947c,0000000.940s, 001.6C,00002191
2016-01-07 02:11:55 r, 19.82m,0000000001Hz,0000460778c,0000001.000s, 001.6C,00002191
2016-01-07 02:21:55 r, 19.75m,0000000001Hz,0000432952c,0000000.940s, 001.6C,00002191
2016-01-07 02:31:55 r, 19.51m,0000000001Hz,0000346344c,0000000.752s, 001.6C,00002191
2016-01-07 02:41:55 r, 19.19m,0000000002Hz,0000260068c,0000000.564s, 001.9C,00002191
2016-01-07 02:51:55 r, 19.27m,0000000002Hz,0000279385c,0000000.606s, 001.9C,00002191
2016-01-07 03:01:55 r, 19.05m,0000000002Hz,0000227502c,0000000.494s, 002.2C,00002191
2016-01-07 03:11:55 r, 18.93m,0000000002Hz,0000205385c,0000000.446s, 002.2C,00002191
2016-01-07 03:21:55 r, 19.01m,0000000002Hz,0000220102c,0000000.478s, 002.2C,00002191
2016-01-07 03:31:56 r, 19.17m,0000000002Hz,0000254321c,0000000.552s, 002.5C,00002191
2016-01-07 03:41:55 r, 19.05m,0000000002Hz,0000228109c,0000000.495s, 002.5C,00002191
2016-01-07 03:51:55 r, 19.10m,0000000002Hz,0000238984c,0000000.519s, 002.5C,00002191
2016-01-07 04:01:55 r, 18.96m,0000000002Hz,0000209143c,0000000.454s, 002.5C,00002191
2016-01-07 04:11:55 r, 18.83m,0000000002Hz,0000186185c,0000000.404s, 002.5C,00002191
2016-01-07 04:21:55 r, 18.76m,0000000003Hz,0000175416c,0000000.381s, 002.9C,00002191
2016-01-07 04:31:56 r, 18.76m,0000000003Hz,0000175121c,0000000.380s, 002.9C,00002191
2016-01-07 04:41:55 r, 18.80m,0000000003Hz,0000180450c,0000000.392s, 002.9C,00002191
2016-01-07 04:51:55 r, 18.64m,0000000003Hz,0000157403c,0000000.342s, 002.9C,00002191
2016-01-07 05:01:55 r, 18.70m,0000000003Hz,0000166893c,0000000.362s, 002.9C,00002191
2016-01-07 05:11:55 r, 18.58m,0000000003Hz,0000148919c,0000000.323s, 002.9C,00002191
2016-01-07 05:21:55 r, 18.72m,0000000003Hz,0000168923c,0000000.367s, 002.9C,00002191
2016-01-07 05:31:55 r, 18.61m,0000000003Hz,0000152563c,0000000.331s, 002.9C,00002191
2016-01-07 05:41:55 r, 18.61m,0000000003Hz,0000153592c,0000000.333s, 003.2C,00002191
2016-01-07 05:51:55 r, 18.57m,0000000003Hz,0000146792c,0000000.319s, 003.2C,00002191
2016-01-07 06:01:55 r, 18.60m,0000000003Hz,0000150795c,0000000.327s, 003.2C,00002191
2016-01-07 06:11:55 r, 18.56m,0000000003Hz,0000146030c,0000000.317s, 003.2C,00002191
2016-01-07 06:21:55 r, 18.53m,0000000003Hz,0000142905c,0000000.310s, 003.2C,00002191
2016-01-07 06:31:55 r, 18.63m,0000000003Hz,0000155550c,0000000.338s, 003.2C,00002191
2016-01-07 06:41:55 r, 18.66m,0000000002Hz,0000159431c,0000000.346s, 003.2C,00002191
2016-01-07 06:51:55 r, 18.33m,0000000004Hz,0000117305c,0000000.255s, 003.2C,00002191
2016-01-07 07:01:55 r, 18.27m,0000000004Hz,0000111413c,0000000.242s, 003.2C,00002191
2016-01-07 07:11:55 r, 17.85m,0000000006Hz,0000076035c,0000000.165s, 003.2C,00002191
2016-01-07 07:21:55 r, 16.84m,0000000015Hz,0000029714c,0000000.064s, 003.2C,00002191
2016-01-07 07:31:55 r, 15.35m,0000000061Hz,0000007553c,0000000.016s, 003.5C,00002191
2016-01-07 07:41:55 r, 13.61m,0000000305Hz,0000000000c,0000000.000s, 003.5C,00002191
2016-01-07 07:51:55 r, 11.73m,0000001714Hz,0000000000c,0000000.000s, 003.5C,00002191
2016-01-07 08:01:55 r, 09.94m,0000008961Hz,0000000000c,0000000.000s, 003.5C,00002191
2016-01-07 08:11:55 r, 08.51m,0000033427Hz,0000000000c,0000000.000s, 003.5C,00002191
2016-01-07 08:21:55 r, 07.45m,0000088310Hz,0000000000c,0000000.000s, 003.5C,00002191
2016-01-07 08:31:55 r, 06.66m,0000183977Hz,0000000000c,0000000.000s, 003.5C,00002191
2016-01-07 08:41:55 r, 06.11m,0000307098Hz,0000000000c,0000000.000s, 003.5C,00002191
2016-01-07 08:51:55 r, 00.00m,0000414629Hz,0000000000c,0000000.000s, 003.5C,00002191
2016-01-07 09:01:55 r, 00.00m,0000567992Hz,0000000000c,0000000.000s, 003.5C,00002191
2016-01-07 09:11:55 r, 00.00m,0000597324Hz,0000000000c,0000000.000s, 003.5C,00002191
2016-01-07 09:21:55 r, 00.00m,0000597481Hz,0000000000c,0000000.000s, 003.8C,00002191
2016-01-07 09:31:55 r, 00.00m,0000597387Hz,0000000000c,0000000.000s, 004.1C,00002191
2016-01-07 09:41:55 r, 00.00m,0000597368Hz,0000000000c,0000000.000s, 004.5C,00002191
2016-01-07 09:51:55 r, 00.00m,0000597244Hz,0000000000c,0000000.000s, 004.8C,00002191
2016-01-07 10:01:55 r, 00.00m,0000597275Hz,0000000000c,0000000.000s, 005.1C,00002191
2016-01-07 10:11:55 r, 00.00m,0000597223Hz,0000000000c,0000000.000s, 005.4C,00002191
2016-01-07 10:21:55 r, 00.00m,0000597158Hz,0000000000c,0000000.000s, 005.4C,00002191
2016-01-07 10:31:56 r, 00.00m,0000597210Hz,0000000000c,0000000.000s, 005.8C,00002191
2016-01-07 10:41:55 r, 00.00m,0000597154Hz,0000000000c,0000000.000s, 006.4C,00002191
2016-01-07 10:51:55 r, 00.00m,0000597068Hz,0000000000c,0000000.000s, 006.7C,00002191
2016-01-07 11:01:55 r, 00.00m,0000597058Hz,0000000000c,0000000.000s, 007.4C,00002191
2016-01-07 11:11:55 r, 00.00m,0000597026Hz,0000000000c,0000000.000s, 007.7C,00002191
2016-01-07 11:21:55 r, 00.00m,0000596970Hz,0000000000c,0000000.000s, 008.3C,00002191
2016-01-07 11:31:55 r, 00.00m,0000597050Hz,0000000000c,0000000.000s, 008.3C,00002191
2016-01-07 11:41:55 r, 00.00m,0000596971Hz,0000000000c,0000000.000s, 008.7C,00002191
2016-01-07 11:51:55 r, 00.00m,0000596879Hz,0000000000c,0000000.000s, 009.0C,00002191
2016-01-07 12:01:56 r, 00.00m,0000596941Hz,0000000000c,0000000.000s, 009.3C,00002191
2016-01-07 12:11:55 r, 00.00m,0000596943Hz,0000000000c,0000000.000s, 009.3C,00002191
2016-01-07 12:21:55 r, 00.00m,0000596800Hz,0000000000c,0000000.000s, 009.6C,00002191
2016-01-07 12:31:55 r, 00.00m,0000596871Hz,0000000000c,0000000.000s, 009.6C,00002191
2016-01-07 12:41:55 r, 00.00m,0000596819Hz,0000000000c,0000000.000s, 009.6C,00002191
2016-01-07 12:51:55 r, 00.00m,0000596802Hz,0000000000c,0000000.000s, 009.9C,00002191
2016-01-07 13:01:55 r, 00.00m,0000596907Hz,0000000000c,0000000.000s, 009.3C,00002191
2016-01-07 13:11:55 r, 00.00m,0000596953Hz,0000000000c,0000000.000s, 009.6C,00002191
2016-01-07 13:21:55 r, 00.00m,0000596855Hz,0000000000c,0000000.000s, 009.3C,00002191
2016-01-07 13:31:55 r, 00.00m,0000596800Hz,0000000000c,0000000.000s, 009.6C,00002191
2016-01-07 13:41:55 r, 00.00m,0000596885Hz,0000000000c,0000000.000s, 009.6C,00002191
2016-01-07 13:51:55 r, 00.00m,0000597021Hz,0000000000c,0000000.000s, 009.3C,00002191
2016-01-07 14:01:55 r, 00.00m,0000597021Hz,0000000000c,0000000.000s, 009.3C,00002191
2016-01-07 14:11:55 r, 00.00m,0000596899Hz,0000000000c,0000000.000s, 009.3C,00002191
2016-01-07 14:21:55 r, 00.00m,0000596938Hz,0000000000c,0000000.000s, 008.7C,00002191
2016-01-07 14:31:55 r, 00.00m,0000597041Hz,0000000000c,0000000.000s, 008.7C,00002191
2016-01-07 14:41:55 r, 00.00m,0000596969Hz,0000000000c,0000000.000s, 008.3C,00002191
2016-01-07 14:51:55 r, 00.00m,0000596990Hz,0000000000c,0000000.000s, 008.3C,00002191
2016-01-07 15:01:56 r, 00.00m,0000597034Hz,0000000000c,0000000.000s, 008.0C,00002191
2016-01-07 15:11:55 r, 00.00m,0000596973Hz,0000000000c,0000000.000s, 008.0C,00002191
2016-01-07 15:21:55 r, 00.00m,0000597117Hz,0000000000c,0000000.000s, 008.0C,00002191
2016-01-07 15:31:56 r, 00.00m,0000597115Hz,0000000000c,0000000.000s, 008.0C,00002191
2016-01-07 15:41:55 r, 00.00m,0000597136Hz,0000000000c,0000000.000s, 008.0C,00002191
2016-01-07 15:51:55 r, 00.00m,0000597021Hz,0000000000c,0000000.000s, 008.0C,00002191
2016-01-07 16:01:56 r, 00.00m,0000597053Hz,0000000000c,0000000.000s, 007.7C,00002191
2016-01-07 16:11:55 r, 00.00m,0000544099Hz,0000000000c,0000000.000s, 007.4C,00002191
2016-01-07 16:21:55 r, 05.96m,0000351456Hz,0000000000c,0000000.000s, 007.4C,00002191
2016-01-07 16:31:56 r, 06.69m,0000177769Hz,0000000000c,0000000.000s, 007.4C,00002191
2016-01-07 16:41:55 r, 07.29m,0000103064Hz,0000000000c,0000000.000s, 007.0C,00002191
2016-01-07 16:51:55 r, 08.14m,0000046811Hz,0000000000c,0000000.000s, 007.0C,00002191
2016-01-07 17:01:55 r, 09.40m,0000014693Hz,0000000000c,0000000.000s, 007.0C,00002191
2016-01-07 17:11:55 r, 11.06m,0000003180Hz,0000000000c,0000000.000s, 007.0C,00002191
2016-01-07 17:21:55 r, 12.86m,0000000611Hz,0000000000c,0000000.000s, 007.0C,00002191
2016-01-07 17:31:55 r, 14.69m,0000000112Hz,0000004146c,0000000.009s, 007.0C,00002191
2016-01-07 17:41:55 r, 16.17m,0000000029Hz,0000016048c,0000000.035s, 007.4C,00002191
2016-01-07 17:51:55 r, 17.29m,0000000010Hz,0000045132c,0000000.098s, 007.0C,00002191
2016-01-07 18:01:55 r, 17.75m,0000000007Hz,0000069537c,0000000.151s, 007.0C,00002191
2016-01-07 18:11:55 r, 17.91m,0000000005Hz,0000080804c,0000000.175s, 007.0C,00002191
2016-01-07 18:21:55 r, 17.99m,0000000005Hz,0000086432c,0000000.188s, 006.7C,00002191
2016-01-07 18:31:55 r, 17.87m,0000000006Hz,0000077742c,0000000.169s, 006.7C,00002191
2016-01-07 18:41:55 r, 17.86m,0000000007Hz,0000076736c,0000000.167s, 006.7C,00002191
2016-01-07 18:51:55 r, 17.91m,0000000005Hz,0000080748c,0000000.175s, 006.7C,00002191
2016-01-07 19:01:55 r, 17.88m,0000000005Hz,0000077827c,0000000.169s, 006.4C,00002191
2016-01-07 19:11:56 r, 17.90m,0000000006Hz,0000079449c,0000000.172s, 006.4C,00002191
2016-01-07 19:21:55 r, 17.97m,0000000006Hz,0000084829c,0000000.184s, 006.1C,00002191
2016-01-07 19:31:55 r, 17.99m,0000000006Hz,0000086262c,0000000.187s, 006.1C,00002191
2016-01-07 19:41:55 r, 18.02m,0000000005Hz,0000088475c,0000000.192s, 006.1C,00002191
2016-01-07 19:51:55 r, 18.00m,0000000006Hz,0000087386c,0000000.190s, 006.1C,00002191
2016-01-07 20:01:55 r, 17.96m,0000000006Hz,0000083579c,0000000.181s, 006.4C,00002191
2016-01-07 20:11:55 r, 17.92m,0000000006Hz,0000081081c,0000000.176s, 006.4C,00002191
2016-01-07 20:21:55 r, 17.84m,0000000006Hz,0000074801c,0000000.162s, 006.4C,00002191
2016-01-07 20:31:55 r, 17.91m,0000000006Hz,0000079885c,0000000.173s, 006.4C,00002191
2016-01-07 20:41:55 r, 17.94m,0000000006Hz,0000082776c,0000000.180s, 006.4C,00002191
2016-01-07 20:51:55 r, 17.94m,0000000006Hz,0000082891c,0000000.180s, 006.7C,00002191
2016-01-07 21:01:55 r, 17.95m,0000000006Hz,0000083298c,0000000.181s, 006.7C,00002191
2016-01-07 21:11:55 r, 18.06m,0000000005Hz,0000091261c,0000000.198s, 006.4C,00002191
2016-01-07 21:21:55 r, 18.15m,0000000005Hz,0000100247c,0000000.218s, 006.4C,00002191
2016-01-07 21:31:55 r, 18.14m,0000000004Hz,0000099185c,0000000.215s, 006.4C,00002191
2016-01-07 21:41:55 r, 18.10m,0000000005Hz,0000094739c,0000000.206s, 006.4C,00002191
2016-01-07 21:51:55 r, 18.01m,0000000005Hz,0000087775c,0000000.190s, 006.4C,00002191
2016-01-07 22:01:55 r, 17.94m,0000000005Hz,0000082486c,0000000.179s, 006.4C,00002191
2016-01-07 22:11:55 r, 17.95m,0000000006Hz,0000083163c,0000000.180s, 006.4C,00002191
2016-01-07 22:21:55 r, 17.94m,0000000006Hz,0000082866c,0000000.180s, 006.1C,00002191
2016-01-07 22:31:55 r, 18.03m,0000000005Hz,0000089187c,0000000.194s, 006.1C,00002191
2016-01-07 22:41:55 r, 18.07m,0000000005Hz,0000092247c,0000000.200s, 006.1C,00002191
2016-01-07 22:51:55 r, 18.00m,0000000005Hz,0000087290c,0000000.189s, 006.1C,00002191
2016-01-07 23:01:55 r, 17.93m,0000000006Hz,0000081524c,0000000.177s, 006.1C,00002191
2016-01-07 23:11:55 r, 17.91m,0000000006Hz,0000080122c,0000000.174s, 006.1C,00002191
2016-01-07 23:21:55 r, 17.91m,0000000006Hz,0000080771c,0000000.175s, 006.1C,00002191
2016-01-07 23:31:55 r, 17.97m,0000000006Hz,0000084813c,0000000.184s, 005.8C,00002191
2016-01-07 23:41:56 r, 18.00m,0000000005Hz,0000086948c,0000000.189s, 005.8C,00002191
2016-01-07 23:51:55 r, 18.25m,0000000004Hz,0000109453c,0000000.238s, 005.8C,00002191
